Orange City, IA

1:02 AM CDT on September 30, 2016 (GMT -0500)
Orange City Municipal

Weather History for KORC - October, 2013

Change the Weather History Date:

Friday, October 11, 2013

  Actual Average Record
Temperature  
Mean Temperature 64 °F -  
Max Temperature 77 °F 66 °F 87 °F (2015)
Min Temperature 50 °F 43 °F 33 °F (2006)
Degree Days  
Heating Degree Days 2    
Growing Degree Days 14 (Base 50)    
Moisture  
Dew Point 49 °F    
Average Humidity 62    
Maximum Humidity 82    
Minimum Humidity 22    
Precipitation  
Precipitation 0.01 in - - ()
Sea Level Pressure  
Sea Level Pressure 29.68 in    
Wind  
Wind Speed 13 mph (South)    
Max Wind Speed 30 mph    
Max Gust Speed 39 mph    
Visibility 10 miles    
Events Rain    
Averages and records for this station are not official NWS values.
T = Trace of Precipitation, MM = Missing Value Source: NWS Daily Summary

Daily Weather History Graph

Daily Weather History Graph

Search for Another Location

Airport or City:

Trip Planner

Search our weather history database for the weather conditions in past years. The results will help you decide how hot, cold, wet, or windy it might be!

Date:

Astronomy

Oct. 11, 2013 Rise Set
Actual Time 7:33 AM CDT 6:47 PM CDT
Civil Twilight 7:04 AM CDT 7:16 PM CDT
Nautical Twilight 6:32 AM CDT 7:48 PM CDT
Astronomical Twilight 5:59 AM CDT 8:21 PM CDT
Moon 2:20 PM CDT (10/11) No Moon Set
Length of Visible Light 12h 11m
Length of Day
11h 14m
Waxing Crescent, 47% of the Moon is Illuminated
Oct 11
Waxing Crescent
Oct 11
First Quarter
Oct 18
Full
Oct 26
Last Quarter
Nov 3
New

Hourly Weather History & Observations

Time (CDT) Temp. Dew Point Humidity Pressure Visibility Wind Dir Wind Speed Gust Speed Precip Events Conditions
12:15 AM 62.6 °F 50.0 °F 63% 29.77 in 10.0 mi SE 6.9 mph - N/A   Clear
12:35 AM 62.6 °F 50.0 °F 63% 29.77 in 10.0 mi SSE 9.2 mph - N/A   Clear
12:55 AM 62.6 °F 50.0 °F 63% 29.78 in 10.0 mi SSE 10.4 mph - N/A   Clear
1:15 AM 62.6 °F 50.0 °F 63% 29.77 in 10.0 mi SSE 11.5 mph 16.1 mph N/A   Clear
1:55 AM 62.6 °F 51.8 °F 68% 29.77 in 10.0 mi SSE 8.1 mph - N/A   Clear
2:15 AM 62.6 °F 51.8 °F 68% 29.78 in 10.0 mi SSE 9.2 mph - N/A   Clear
2:35 AM 62.6 °F 51.8 °F 68% 29.79 in 10.0 mi South 8.1 mph - N/A   Clear
2:55 AM 62.6 °F 51.8 °F 68% 29.78 in 10.0 mi SSE 8.1 mph - N/A   Clear
3:15 AM 60.8 °F 51.8 °F 72% 29.77 in 10.0 mi SSE 8.1 mph - N/A   Clear
3:35 AM 60.8 °F 50.0 °F 68% 29.75 in 10.0 mi SE 8.1 mph - N/A   Clear
3:55 AM 60.8 °F 51.8 °F 72% 29.74 in 10.0 mi SSE 9.2 mph - N/A   Clear
4:15 AM 60.8 °F 51.8 °F 72% 29.73 in 10.0 mi SE 9.2 mph - N/A   Clear
4:35 AM 60.8 °F 51.8 °F 72% 29.72 in 10.0 mi SSE 10.4 mph - N/A   Clear
4:55 AM 60.8 °F 51.8 °F 72% 29.72 in 10.0 mi SSE 9.2 mph - N/A   Clear
5:15 AM 60.8 °F 51.8 °F 72% 29.71 in 10.0 mi SSE 10.4 mph 17.3 mph N/A   Clear
5:35 AM 60.8 °F 51.8 °F 72% 29.70 in 10.0 mi SSE 10.4 mph 18.4 mph N/A   Clear
5:55 AM 60.8 °F 51.8 °F 72% 29.69 in 10.0 mi SSE 12.7 mph 17.3 mph N/A   Clear
6:15 AM 60.8 °F 51.8 °F 72% 29.68 in 10.0 mi SSE 12.7 mph 18.4 mph N/A   Clear
6:35 AM 60.8 °F 51.8 °F 72% 29.67 in 10.0 mi SSE 12.7 mph 23.0 mph N/A   Clear
6:55 AM 60.8 °F 50.0 °F 68% 29.67 in 10.0 mi SSE 12.7 mph 20.7 mph N/A   Clear
7:15 AM 60.8 °F 50.0 °F 68% 29.66 in 10.0 mi SE 11.5 mph 18.4 mph N/A   Clear
7:35 AM 60.8 °F 50.0 °F 68% 29.65 in 10.0 mi SE 10.4 mph 18.4 mph N/A   Clear
7:55 AM 60.8 °F 50.0 °F 68% 29.65 in 10.0 mi SE 9.2 mph 18.4 mph N/A   Clear
8:15 AM 60.8 °F 50.0 °F 68% 29.63 in 10.0 mi SE 10.4 mph 19.6 mph N/A   Scattered Clouds
8:35 AM 60.8 °F 51.8 °F 72% 29.66 in 10.0 mi SSE 16.1 mph 21.9 mph N/A Rain Light Rain
8:55 AM 60.8 °F 50.0 °F 68% 29.67 in 10.0 mi SSE 12.7 mph 18.4 mph N/A   Scattered Clouds
9:15 AM 60.8 °F 51.8 °F 72% 29.65 in 10.0 mi SSE 13.8 mph 21.9 mph N/A   Mostly Cloudy
9:35 AM 60.8 °F 51.8 °F 72% 29.65 in 10.0 mi SSE 12.7 mph 21.9 mph N/A   Scattered Clouds
9:55 AM 60.8 °F 53.6 °F 77% 29.65 in 10.0 mi SSE 13.8 mph 21.9 mph N/A Rain Light Rain
10:15 AM 60.8 °F 53.6 °F 77% 29.64 in 7.0 mi SSE 17.3 mph 28.8 mph N/A Rain Rain
10:35 AM 62.6 °F 55.4 °F 77% 29.64 in 10.0 mi SSE 15.0 mph 21.9 mph 0.01 in Rain Light Rain
10:55 AM 60.8 °F 55.4 °F 82% 29.63 in 10.0 mi SSE 12.7 mph 19.6 mph 0.01 in Rain Light Rain
11:15 AM 62.6 °F 55.4 °F 77% 29.62 in 10.0 mi SSE 16.1 mph 21.9 mph N/A   Overcast
11:35 AM 62.6 °F 55.4 °F 77% 29.62 in 10.0 mi SSE 15.0 mph 23.0 mph N/A   Overcast
11:55 AM 64.4 °F 55.4 °F 73% 29.60 in 10.0 mi SSE 12.7 mph 28.8 mph N/A   Mostly Cloudy
12:15 PM 64.4 °F 53.6 °F 68% 29.59 in 10.0 mi SSE 24.2 mph 32.2 mph N/A   Mostly Cloudy
12:35 PM 66.2 °F 55.4 °F 68% 29.58 in 10.0 mi SSE 20.7 mph 29.9 mph N/A   Mostly Cloudy
12:55 PM 68.0 °F 55.4 °F 64% 29.57 in 10.0 mi South 19.6 mph 28.8 mph N/A   Mostly Cloudy
1:15 PM 69.8 °F 55.4 °F 60% 29.58 in 10.0 mi South 26.5 mph 39.1 mph N/A   Mostly Cloudy
1:35 PM 71.6 °F 53.6 °F 53% 29.56 in 10.0 mi South 24.2 mph 34.5 mph N/A   Scattered Clouds
1:55 PM 71.6 °F 53.6 °F 53% 29.56 in 10.0 mi South 21.9 mph 34.5 mph N/A   Scattered Clouds
2:15 PM 73.4 °F 53.6 °F 50% 29.55 in 10.0 mi South 25.3 mph 33.4 mph N/A   Scattered Clouds
2:35 PM 73.4 °F 51.8 °F 47% 29.56 in 10.0 mi South 21.9 mph 35.7 mph N/A   Scattered Clouds
2:55 PM 73.4 °F 51.8 °F 47% 29.56 in 10.0 mi South 25.3 mph 36.8 mph N/A   Scattered Clouds
3:15 PM 73.4 °F 51.8 °F 47% 29.55 in 10.0 mi South 19.6 mph 34.5 mph N/A   Clear
3:35 PM 73.4 °F 51.8 °F 47% 29.55 in 10.0 mi South 26.5 mph 34.5 mph N/A   Scattered Clouds
3:55 PM 75.2 °F 51.8 °F 44% 29.55 in 10.0 mi South 21.9 mph 31.1 mph N/A   Mostly Cloudy
4:15 PM 77.0 °F 41.0 °F 28% 29.55 in 10.0 mi South 28.8 mph 38.0 mph N/A   Scattered Clouds
4:35 PM 77.0 °F 35.6 °F 22% 29.56 in 10.0 mi SSW 29.9 mph 36.8 mph N/A   Mostly Cloudy
4:55 PM 75.2 °F 37.4 °F 25% 29.57 in 10.0 mi SSW 23.0 mph 33.4 mph N/A   Scattered Clouds
5:15 PM 75.2 °F 39.2 °F 27% 29.59 in 10.0 mi SW 27.6 mph 35.7 mph N/A   Scattered Clouds
5:35 PM 73.4 °F 42.8 °F 33% 29.61 in 10.0 mi WSW 25.3 mph 33.4 mph N/A   Clear
5:55 PM 71.6 °F 42.8 °F 35% 29.63 in 10.0 mi WSW 25.3 mph 35.7 mph N/A   Clear
6:15 PM 69.8 °F 42.8 °F 38% 29.65 in 10.0 mi WSW 24.2 mph 34.5 mph N/A   Clear
6:35 PM 66.2 °F 42.8 °F 43% 29.67 in 10.0 mi WSW 19.6 mph 25.3 mph N/A   Clear
6:55 PM 66.2 °F 44.6 °F 46% 29.68 in 10.0 mi WSW 19.6 mph 26.5 mph N/A   Clear
7:15 PM 64.4 °F 44.6 °F 49% 29.70 in 10.0 mi West 20.7 mph 27.6 mph N/A   Clear
7:35 PM 62.6 °F 44.6 °F 52% 29.71 in 10.0 mi West 18.4 mph 24.2 mph N/A   Clear
7:55 PM 59.0 °F 44.6 °F 59% 29.73 in 10.0 mi West 25.3 mph 32.2 mph N/A   Clear
8:15 PM 57.2 °F 42.8 °F 59% 29.75 in 10.0 mi West 19.6 mph 28.8 mph N/A   Clear
8:35 PM 55.4 °F 42.8 °F 63% 29.76 in 10.0 mi West 16.1 mph 29.9 mph N/A   Clear
8:55 PM 55.4 °F 42.8 °F 63% 29.77 in 10.0 mi West 16.1 mph 23.0 mph N/A   Clear
9:15 PM 53.6 °F 42.8 °F 67% 29.78 in 10.0 mi West 18.4 mph - N/A   Clear
9:35 PM 53.6 °F 42.8 °F 67% 29.79 in 10.0 mi West 18.4 mph 23.0 mph N/A   Clear
9:55 PM 51.8 °F 41.0 °F 67% 29.80 in 10.0 mi West 13.8 mph 19.6 mph N/A   Clear
10:15 PM 51.8 °F 39.2 °F 62% 29.81 in 10.0 mi West 10.4 mph - N/A   Clear
10:35 PM 51.8 °F 41.0 °F 67% 29.82 in 10.0 mi WSW 10.4 mph - N/A   Clear
10:55 PM 51.8 °F 41.0 °F 67% 29.83 in 10.0 mi WSW 9.2 mph - N/A   Clear
11:15 PM 50.0 °F 41.0 °F 71% 29.83 in 10.0 mi WSW 10.4 mph - N/A   Clear
11:35 PM 50.0 °F 41.0 °F 71% 29.83 in 10.0 mi SW 8.1 mph - N/A   Clear
11:55 PM 50.0 °F 41.0 °F 71% 29.84 in 10.0 mi WSW 11.5 mph - N/A   Clear